Temperature
7 7 7 7 7 7 6 6 6 7 7 8 8 7 8 9 9 9 9 9 9 8 8 8 7 7 7 7 6 6 6 6 6 6 6 6 6 6 6 5 5 5 5 5
7 7 7 7 7 7 7 7 7 7 8 8 8 9 8 9 9 9 9 9 9 8 8 7 7 7 6 6 6 5 5 5 5 5 5 5 5 5 5 5 4 4 4 4
6 7 7 6 7 7 7 7 7 7 8 8 8 8 9 9 9 10 10 9 9 8 8 7 7 6 6 5 5 4 4 4 4 4 4 4 4 4 4 4 4 4 4 4
5 6 6 7 8 7 7 7 7 8 8 8 8 9 10 10 10 10 9 9 9 8 7 7 6 5 5 4 4 4 4 4 4 4 3 3 3 3 3 3 3 3 3 3
5 5 6 7 8 8 7 7 7 7 8 8 9 8 8 9 9 9 9 9 8 8 7 6 6 5 4 4 3 3 3 3 3 3 3 3 3 2 2 2 2 2 2 1
5 5 5 7 8 8 8 7 7 7 7 8 8 6 7 8 9 9 8 8 8 7 6 6 5 4 4 3 3 3 3 3 3 2 2 2 2 2 1 1 1 1 1 0
5 5 5 7 8 8 7 7 7 8 8 8 7 7 8 8 8 8 8 7 7 6 6 5 4 4 3 3 3 2 2 2 2 2 2 1 1 1 1 0 0 0 -0 -0
5 5 5 7 7 7 7 7 7 8 8 8 8 8 7 7 7 7 7 6 6 5 5 4 4 3 3 3 2 2 2 2 1 1 1 1 1 0 0 -0 -0 -0 -0 -1
5 6 6 7 7 8 8 7 7 7 7 7 7 7 7 7 7 6 6 5 5 4 4 4 3 3 3 2 2 2 1 1 1 1 1 1 0 0 -0 -0 -1 -1 -1 -1
5 5 6 7 7 7 7 7 7 7 7 7 7 7 6 6 6 6 5 5 4 4 4 3 3 3 2 2 2 1 1 1 1 1 0 0 -0 -0 -0 -0 -1 -1 -1 -1
5 5 6 6 7 7 7 7 7 6 6 6 6 6 6 5 5 5 5 4 4 4 4 3 3 2 2 2 1 1 1 1 0 0 0 -0 -0 -0 -0 -1 -1 -1 -1 -1
5 5 5 6 6 6 6 6 6 6 6 6 5 5 5 5 5 5 4 4 4 3 3 3 2 2 2 1 1 1 1 1 0 0 -0 -0 -0 -0 -1 -1 -1 -1 -1 -2
6 6 6 6 6 6 6 5 5 5 5 5 5 4 4 4 4 4 4 3 3 3 3 3 2 2 2 1 1 1 1 1 0 0 -0 -0 -0 -0 -0 -1 -1 -1 -1 -2
6 5 5 5 5 5 5 5 4 4 4 4 4 3 3 3 3 3 3 3 3 3 2 2 2 2 1 1 1 1 0 0 0 0 -0 -0 -0 -0 -1 -1 -1 -1 -1 -2
5 5 5 4 4 4 4 4 4 3 3 3 3 3 3 3 3 3 2 2 2 2 2 2 2 2 1 1 1 0 0 0 0 -0 -0 -0 -1 -1 -1 -1 -1 -1 -2 -2
4 4 4 3 3 3 3 3 3 3 2 2 2 2 2 2 2 2 2 2 2 2 2 2 2 1 1 1 0 0 0 -0 -0 -0 -0 -1 -1 -1 -1 -1 -1 -2 -2 -2
3 2 2 2 2 2 2 2 2 2 1 1 1 1 1 1 1 1 1 1 1 1 1 1 1 1 0 0 0 0 0 -0 -0 -1 -1 -1 -1 -1 -1 -1 -1 -2 -2 -2
2 3 2 2 2 2 1 1 1 1 1 1 1 1 1 1 1 1 1 1 1 1 1 0 0 0 -0 -0 -0 -0 -0 -0 -0 -0 -0 -1 -1 -1 -1 -1 -2 -2 -2 -2
1 1 1 1 1 1 1 0 0 0 0 0 0 0 0 0 -0 -0 -0 0 0 0 0 -0 -0 -0 -0 -0 -0 -0 -0 -0 -1 -1 -1 -1 -1 -1 -1 -1 -2 -2 -2 -2
0 0 -0 -0 -0 -0 0 -0 -0 -0 -0 -0 -0 -0 -0 -1 -1 -1 -1 -1 -1 -1 -1 -1 -1 -1 -1 -1 -1 -1 -1 -1 -1 -1 -1 -1 -1 -1 -1 -1 -2 -2 -2 -3
-1 -1 -1 -1 -1 -1 -1 -1 -1 -0 -0 -1 -1 -1 -1 -1 -1 -1 -1 -1 -1 -1 -1 -1 -1 -1 -1 -1 -1 -1 -1 -1 -1 -1 -1 -1 -1 -2 -2 -2 -2 -2 -3 -3
-1 -1 -1 -1 -1 -1 -1 -1 -1 -1 -1 -1 -1 -1 -1 -1 -2 -2 -2 -2 -2 -2 -1 -1 -1 -1 -1 -1 -1 -1 -1 -2 -2 -2 -2 -2 -2 -2 -2 -2 -2 -2 -3 -3
-2 -2 -2 -2 -1 -2 -2 -2 -2 -2 -2 -2 -2 -2 -2 -2 -2 -2 -2 -2 -2 -2 -2 -2 -2 -2 -2 -2 -2 -2 -2 -2 -2 -2 -2 -2 -3 -3 -3 -3 -3 -3 -3 -3
-2 -2 -2 -2 -2 -2 -2 -2 -2 -2 -2 -2 -2 -2 -2 -2 -2 -3 -3 -2 -2 -2 -2 -2 -2 -2 -2 -2 -2 -2 -2 -2 -2 -3 -3 -3 -3 -3 -3 -3 -3 -3 -4 -4
-2 -2 -2 -2 -2 -2 -2 -2 -2 -3 -3 -3 -3 -3 -3 -3 -3 -3 -3 -3 -3 -3 -2 -2 -2 -2 -3 -3 -3 -3 -3 -3 -3 -3 -3 -4 -4 -4 -4 -4 -4 -4 -4 -4
-2 -2 -2 -3 -3 -3 -3 -3 -3 -3 -3 -3 -3 -3 -3 -4 -4 -4 -3 -3 -3 -3 -3 -3 -3 -3 -3 -3 -3 -4 -4 -4 -4 -4 -4 -4 -4 -4 -4 -4 -5 -5 -5 -5
-3 -3 -3 -3 -3 -3 -3 -3 -3 -4 -4 -4 -4 -4 -4 -4 -4 -4 -4 -4 -4 -4 -4 -4 -4 -4 -4 -4 -4 -4 -4 -4 -5 -5 -5 -5 -5 -5 -5 -5 -5 -5 -5 -5
Wind_Speed
3 4 6 6 8 9 9 8 7 6 7 8 8 9 9 8 8 7 7 7 8 7 6 5 5 4 4 4 4 5 5 5 5 5 5 6 6 6 7 7 7 7 7 7
1 2 4 4 8 10 10 8 8 6 7 6 5 5 6 8 8 8 8 8 8 8 7 7 6 5 5 4 4 5 5 5 5 5 6 6 6 6 7 7 7 7 7 7
1 1 2 4 8 11 7 6 8 11 10 4 5 7 9 9 9 9 8 8 8 8 8 7 7 7 6 5 5 6 6 5 5 5 6 6 6 7 7 6 7 7 7 7
1 1 4 6 3 6 8 8 9 7 6 7 8 7 5 6 8 8 8 8 7 7 6 6 6 6 6 6 6 6 6 5 5 6 6 6 6 6 6 5 6 6 6 6
2 2 5 6 3 3 5 5 6 8 6 5 5 4 0 1 4 6 6 6 6 6 6 6 7 7 7 6 6 6 6 6 6 6 7 6 6 6 5 5 5 5 5 6
3 2 4 4 3 1 3 3 3 5 6 6 7 4 4 3 3 4 5 5 5 6 6 7 6 7 8 7 6 6 6 6 6 6 7 7 6 5 4 5 5 5 5 4
3 3 5 5 2 3 3 4 2 2 4 5 5 4 3 5 3 4 4 4 6 6 6 6 7 8 7 7 6 6 6 6 6 6 7 7 6 5 5 5 5 5 4 3
4 4 6 3 3 4 4 1 2 3 3 4 4 4 4 4 4 4 4 4 5 5 5 5 7 8 7 7 6 7 7 7 7 6 6 6 6 5 5 6 5 4 3 2
6 6 3 1 3 2 3 3 2 3 3 4 4 3 3 3 3 4 4 5 4 5 5 5 6 7 8 7 7 8 7 7 7 6 5 6 6 6 5 4 4 3 3 3
2 3 2 1 1 2 3 3 3 3 3 3 3 2 2 2 3 4 4 5 5 6 6 6 6 7 7 8 8 8 8 7 7 7 6 5 5 5 5 5 4 4 4 3
3 2 1 1 1 3 3 4 4 3 2 2 2 1 2 2 3 4 4 4 5 7 7 7 7 7 7 8 9 9 8 7 6 6 6 5 4 4 5 4 5 6 5 4
5 4 4 4 3 4 4 3 2 2 1 1 0 2 2 3 3 3 4 4 5 6 7 7 8 8 8 9 10 9 8 7 6 5 5 5 5 3 4 4 6 8 8 6
3 1 2 3 2 3 3 2 1 1 1 1 2 1 2 2 3 3 4 4 6 7 7 7 8 8 9 9 10 10 8 8 6 6 6 6 5 5 4 2 3 5 7 8
0 2 2 2 2 2 2 2 1 2 2 1 1 2 1 2 2 3 4 5 5 5 6 7 8 9 9 9 9 9 8 9 8 6 6 6 6 5 5 4 3 2 4 7
1 1 3 3 3 2 2 2 2 2 2 3 3 2 2 3 3 4 4 3 3 5 6 7 8 8 8 9 10 9 8 7 6 6 6 6 5 5 5 5 4 3 2 4
1 2 4 4 3 2 2 1 1 1 2 3 3 4 4 4 4 3 3 2 4 5 6 7 7 7 8 9 9 8 7 10 9 6 6 6 6 6 6 5 5 5 5 4
3 3 3 2 2 1 0 0 1 2 2 3 4 4 4 3 3 3 3 3 3 4 5 6 6 6 7 9 9 7 6 8 11 7 6 7 6 7 6 6 6 6 6 6
1 2 2 2 2 1 0 1 1 2 2 3 4 4 3 3 3 4 4 3 2 2 2 3 3 5 6 7 7 6 6 6 7 7 6 7 6 6 6 6 7 7 5 5
4 4 4 3 2 2 1 2 2 3 3 3 3 3 3 3 3 3 3 2 2 3 2 2 3 4 5 7 7 6 7 7 7 6 6 9 8 6 6 6 6 6 6 5
4 4 4 4 3 2 2 2 3 3 3 3 3 3 3 4 3 3 2 2 2 2 2 2 3 3 4 6 7 5 7 8 7 7 7 7 7 7 7 7 7 6 6 6
3 3 3 3 2 2 2 2 2 3 4 3 3 3 3 4 3 2 2 3 2 2 2 3 2 3 3 5 7 5 6 7 7 7 7 7 7 7 7 7 7 7 6 6
1 2 2 2 2 2 2 2 3 3 3 3 3 3 3 3 3 3 3 2 3 4 3 2 2 3 4 5 4 5 6 6 6 6 6 6 7 7 7 7 7 7 6 6
0 1 1 1 1 1 2 2 3 3 3 3 3 3 3 3 3 3 3 3 3 5 3 3 4 5 5 4 4 5 6 6 6 6 6 6 6 7 7 7 7 6 6 6
0 0 0 1 1 1 2 3 3 3 3 3 3 3 3 3 3 2 3 6 7 6 4 4 5 5 5 2 3 4 5 5 6 6 6 5 6 6 6 6 6 6 6 7
1 1 0 0 1 1 2 3 3 3 3 3 3 3 3 2 3 4 4 5 6 5 3 4 5 5 3 2 3 4 4 5 5 5 5 5 5 5 5 5 6 6 6 6
1 1 1 2 1 1 1 2 2 2 3 3 3 3 3 3 3 3 3 4 5 5 3 3 3 3 2 2 3 3 4 4 5 5 5 5 5 5 5 5 6 6 6 6
2 1 1 1 1 1 1 1 2 2 3 3 4 3 4 4 4 4 4 4 3 3 3 3 2 2 2 2 2 3 3 3 3 4 4 4 4 5 5 6 5 5 5 5
Wind_Direction
222 192 165 188 198 194 199 199 200 227 220 226 206 188 183 177 170 166 173 176 177 175 172 166 156 150 142 132 121 115 109 102 96 87 80 77 73 69 68 70 72 71 72 70
313 195 188 209 211 205 213 217 223 235 249 236 208 180 181 184 179 184 191 191 185 179 175 175 172 166 153 144 136 125 119 114 107 99 90 85 82 79 78 75 73 73 72 72
272 330 61 258 224 208 206 206 201 225 234 192 181 191 194 195 193 195 195 190 185 184 185 184 179 167 160 153 139 129 125 121 115 110 103 98 96 90 86 82 79 76 73 75
160 90 235 250 247 203 206 226 217 219 215 196 204 202 194 192 190 195 192 185 184 181 176 171 163 154 148 144 140 137 134 129 126 123 117 108 103 98 93 89 86 83 79 75
159 215 276 290 268 182 184 248 229 216 214 194 171 125 342 243 187 188 185 176 174 168 163 157 158 154 146 144 143 143 145 144 142 137 131 124 118 111 104 100 92 87 84 80
167 196 242 266 286 200 123 269 280 200 193 172 143 170 226 191 147 142 138 141 145 141 142 153 159 151 148 151 152 156 154 149 145 141 138 135 131 123 113 111 106 99 90 83
192 226 267 265 260 103 159 246 318 144 159 154 169 195 172 135 124 132 135 139 141 144 154 166 160 153 155 158 165 158 146 142 141 140 140 138 132 126 124 118 111 105 98 80
179 211 255 267 135 174 207 162 86 88 105 124 127 116 121 132 140 144 142 145 149 153 163 163 160 158 161 169 161 148 144 144 144 144 145 142 134 129 128 129 126 124 118 101
197 216 250 210 176 188 147 130 114 105 95 111 122 144 154 165 170 174 175 173 168 168 169 170 171 168 170 169 156 151 149 151 149 146 143 146 145 144 143 147 150 156 157 161
228 254 248 217 131 88 108 121 107 107 110 117 141 162 172 184 194 196 193 187 178 174 179 184 182 178 173 164 161 158 159 158 155 152 151 151 154 159 163 170 171 176 180 184
240 258 265 282 188 153 111 97 87 75 81 102 125 175 201 216 219 211 205 195 188 191 194 192 183 181 174 168 164 164 165 165 164 163 160 158 161 175 178 191 188 186 192 188
228 220 202 213 197 152 131 126 120 104 60 31 75 242 240 241 233 218 209 200 199 202 199 192 185 185 181 176 172 170 173 175 174 169 165 161 155 151 185 189 201 202 198 195
231 230 163 143 118 123 137 139 134 131 152 312 316 278 254 252 240 225 215 211 211 210 203 193 189 190 186 181 179 181 181 179 176 174 172 170 168 168 170 184 198 204 208 209
152 108 122 156 159 115 109 96 81 60 33 2 328 320 302 274 255 241 233 226 221 211 201 194 192 196 189 183 183 185 182 183 180 180 177 178 181 183 182 184 195 233 231 226
314 162 166 145 115 91 82 79 71 32 7 358 349 332 311 285 268 262 253 236 218 207 202 197 199 201 187 183 185 186 185 184 181 177 177 180 181 185 192 197 203 212 226 241
187 109 117 123 126 105 86 83 62 326 333 329 328 319 307 290 281 278 263 223 210 216 212 206 209 202 185 185 185 187 191 188 180 179 181 183 186 191 198 203 208 214 222 226
164 171 166 173 173 157 124 348 305 311 318 316 314 313 314 309 299 292 285 265 244 234 220 212 211 193 185 187 188 189 187 188 187 184 190 193 195 200 202 205 212 220 229 230
156 153 145 157 169 169 347 7 351 333 318 314 317 318 316 308 296 293 291 287 274 260 242 224 203 187 188 190 189 185 184 187 189 192 196 199 202 202 203 209 216 223 232 237
78 84 83 82 83 85 46 1 343 335 329 326 320 314 307 303 302 300 296 271 249 255 267 253 215 196 197 197 188 186 187 190 194 197 199 208 209 206 208 214 220 225 228 230
75 77 78 70 58 52 28 353 342 337 334 327 320 323 325 324 320 310 289 259 252 273 271 253 226 214 206 201 194 192 193 197 200 202 203 205 208 212 214 218 222 227 229 232
76 73 69 61 48 34 16 356 344 333 331 334 329 321 316 317 318 309 289 283 301 312 295 262 239 226 212 208 202 198 198 201 204 207 207 210 214 217 219 221 224 228 231 235
74 72 58 44 28 7 358 358 351 341 339 338 336 331 326 325 324 312 285 290 310 311 309 274 257 241 230 217 203 201 202 205 208 208 209 212 215 220 223 224 226 230 233 235
105 74 45 10 341 329 350 357 350 344 337 332 334 334 328 318 312 308 309 322 319 306 305 275 274 261 244 218 204 206 207 209 210 211 213 216 219 222 225 227 229 231 234 237
171 52 359 355 358 358 345 340 339 337 332 327 332 334 332 327 319 316 311 313 316 310 300 287 280 266 252 222 208 210 212 214 216 215 215 217 221 224 227 229 232 234 236 239
196 206 257 319 319 304 307 323 335 342 342 337 335 338 337 327 310 312 315 312 315 316 310 295 287 276 258 224 214 218 220 222 222 217 215 218 223 226 228 230 233 237 239 242
212 237 249 254 259 275 294 312 317 321 328 330 330 331 332 327 318 316 315 315 316 318 318 303 290 280 264 236 228 229 229 234 235 227 219 221 224 226 231 234 236 238 242 246
224 231 247 273 273 267 280 290 297 311 320 318 318 325 330 329 328 326 325 324 324 320 313 307 301 288 267 250 247 241 234 229 226 225 223 224 225 229 233 235 239 240 244 249
Height
1460 1459 1461 1462 1463 1464 1467 1469 1472 1466 1463 1459 1458 1458 1459 1461 1463 1466 1468 1469 1470 1471 1472 1473 1474 1474 1474 1474 1475 1475 1475 1475 1475 1475 1475 1475 1475 1475 1475 1475 1475 1475 1475 1474
1459 1457 1458 1459 1459 1460 1461 1462 1462 1462 1459 1454 1454 1456 1458 1460 1462 1464 1465 1467 1468 1469 1470 1471 1471 1471 1472 1472 1472 1473 1473 1473 1473 1473 1473 1473 1473 1473 1474 1474 1474 1474 1473 1473
1465 1459 1458 1462 1455 1455 1456 1455 1456 1457 1454 1453 1454 1455 1456 1458 1460 1461 1463 1464 1465 1467 1467 1468 1469 1469 1469 1470 1470 1470 1471 1471 1471 1471 1471 1472 1472 1472 1473 1473 1473 1473 1472 1472
1465 1464 1466 1456 1448 1448 1450 1450 1450 1449 1448 1449 1450 1452 1454 1456 1457 1459 1460 1462 1463 1464 1465 1466 1466 1467 1467 1467 1468 1468 1468 1469 1469 1469 1470 1470 1471 1472 1472 1472 1472 1472 1472 1472
1466 1466 1461 1451 1446 1446 1449 1449 1446 1446 1446 1447 1449 1452 1453 1454 1455 1457 1458 1460 1461 1462 1462 1463 1463 1464 1464 1465 1465 1466 1467 1467 1468 1468 1469 1470 1470 1471 1471 1471 1472 1472 1472 1472
1464 1464 1462 1451 1445 1443 1447 1449 1444 1443 1444 1446 1448 1454 1453 1453 1454 1455 1456 1457 1458 1459 1459 1460 1461 1461 1462 1462 1463 1464 1465 1466 1466 1467 1468 1469 1469 1470 1470 1471 1471 1471 1472 1472
1461 1462 1456 1447 1444 1445 1453 1449 1444 1442 1443 1445 1447 1449 1450 1451 1452 1453 1454 1455 1456 1456 1457 1457 1458 1459 1459 1460 1461 1462 1463 1464 1465 1466 1467 1468 1469 1469 1470 1471 1471 1471 1472 1472
1458 1460 1457 1444 1444 1447 1447 1444 1444 1443 1444 1445 1446 1448 1449 1450 1451 1452 1452 1453 1454 1454 1454 1455 1456 1456 1457 1458 1459 1460 1461 1463 1464 1465 1466 1467 1468 1469 1469 1470 1471 1471 1471 1471
1452 1452 1445 1443 1443 1443 1443 1444 1444 1445 1445 1446 1447 1448 1448 1449 1450 1450 1451 1451 1452 1452 1452 1453 1453 1454 1455 1456 1458 1459 1460 1461 1463 1464 1465 1466 1467 1468 1469 1469 1470 1470 1470 1471
1448 1445 1444 1443 1443 1443 1444 1444 1445 1445 1446 1446 1447 1447 1448 1448 1448 1449 1449 1449 1449 1450 1450 1450 1451 1452 1453 1455 1456 1457 1458 1460 1461 1462 1463 1465 1466 1467 1468 1468 1469 1469 1469 1469
1445 1444 1443 1442 1442 1443 1444 1444 1445 1445 1445 1446 1446 1446 1446 1446 1446 1446 1446 1447 1447 1447 1447 1448 1449 1450 1451 1452 1453 1455 1456 1458 1459 1460 1462 1463 1464 1466 1467 1467 1468 1468 1468 1468
1444 1441 1442 1441 1441 1442 1443 1443 1444 1444 1444 1444 1444 1444 1444 1444 1443 1443 1443 1443 1444 1444 1444 1445 1446 1447 1448 1449 1451 1452 1454 1455 1457 1458 1460 1461 1463 1464 1464 1465 1466 1466 1466 1465
1440 1439 1439 1440 1440 1441 1442 1442 1442 1442 1442 1442 1442 1441 1441 1440 1440 1440 1440 1440 1440 1440 1441 1442 1443 1444 1445 1446 1448 1450 1451 1453 1454 1456 1457 1459 1460 1461 1462 1463 1463 1463 1463 1463
1438 1438 1439 1439 1439 1440 1440 1440 1441 1440 1440 1440 1439 1438 1438 1437 1437 1437 1437 1437 1437 1437 1438 1438 1439 1440 1442 1443 1445 1446 1448 1450 1452 1453 1455 1457 1458 1459 1460 1460 1460 1460 1460 1460
1437 1437 1437 1437 1438 1438 1438 1438 1438 1438 1438 1437 1436 1436 1435 1434 1434 1433 1433 1433 1433 1433 1434 1434 1435 1437 1439 1440 1441 1443 1445 1447 1449 1451 1452 1454 1455 1456 1457 1457 1457 1457 1457 1457
1435 1435 1435 1436 1436 1436 1436 1436 1436 1436 1435 1434 1434 1433 1432 1431 1430 1430 1430 1429 1429 1429 1430 1431 1431 1433 1435 1436 1438 1439 1441 1443 1445 1447 1449 1450 1452 1453 1453 1454 1454 1454 1453 1453
1433 1433 1433 1434 1434 1434 1434 1434 1434 1434 1433 1432 1431 1430 1429 1428 1427 1426 1426 1426 1426 1426 1427 1427 1428 1429 1431 1432 1434 1435 1437 1439 1441 1443 1445 1446 1447 1448 1449 1450 1450 1450 1449 1449
1431 1431 1432 1432 1432 1432 1432 1432 1432 1431 1430 1429 1428 1427 1426 1425 1424 1423 1422 1422 1422 1422 1423 1423 1424 1425 1426 1428 1429 1431 1433 1435 1436 1438 1440 1441 1443 1444 1445 1445 1445 1445 1445 1444
1430 1430 1430 1430 1431 1431 1431 1430 1430 1429 1428 1427 1425 1424 1423 1422 1421 1420 1419 1419 1418 1419 1419 1420 1420 1421 1422 1423 1425 1426 1428 1430 1432 1433 1435 1436 1438 1439 1439 1440 1440 1440 1440 1439
1429 1429 1429 1429 1429 1429 1429 1428 1428 1427 1425 1424 1423 1421 1420 1419 1418 1417 1416 1416 1415 1416 1416 1416 1416 1417 1418 1419 1420 1422 1423 1425 1427 1428 1430 1431 1432 1433 1434 1434 1434 1434 1434 1433
1429 1429 1429 1429 1428 1428 1427 1426 1426 1424 1423 1422 1420 1419 1418 1416 1415 1414 1413 1413 1413 1413 1412 1412 1413 1413 1414 1415 1416 1417 1419 1420 1422 1423 1424 1426 1426 1427 1428 1428 1428 1428 1428 1427
1429 1429 1429 1428 1428 1427 1426 1425 1424 1422 1421 1420 1418 1417 1415 1414 1413 1412 1411 1411 1410 1409 1409 1409 1409 1410 1410 1411 1412 1413 1414 1415 1417 1418 1419 1420 1421 1421 1422 1422 1422 1422 1422 1421
1429 1429 1428 1427 1426 1425 1424 1423 1422 1420 1419 1418 1416 1415 1413 1412 1411 1410 1409 1408 1407 1406 1406 1406 1406 1406 1407 1407 1408 1409 1410 1411 1412 1413 1414 1415 1415 1416 1416 1416 1416 1416 1416 1415
1428 1428 1427 1426 1425 1424 1422 1421 1420 1418 1417 1415 1414 1413 1411 1410 1409 1408 1406 1405 1404 1404 1403 1402 1402 1402 1403 1403 1404 1405 1406 1407 1407 1408 1409 1410 1410 1410 1411 1411 1410 1410 1410 1409
1426 1426 1425 1424 1423 1422 1421 1419 1418 1416 1415 1414 1412 1411 1409 1408 1406 1405 1404 1403 1402 1401 1400 1399 1399 1399 1399 1400 1400 1401 1401 1402 1403 1404 1405 1405 1405 1405 1405 1405 1405 1405 1404 1404
1425 1424 1423 1422 1421 1420 1419 1417 1416 1414 1413 1411 1410 1409 1407 1406 1404 1403 1401 1400 1399 1398 1397 1396 1396 1396 1396 1396 1396 1397 1397 1398 1398 1399 1400 1400 1400 1400 1400 1400 1400 1399 1399 1398
1422 1422 1421 1420 1419 1418 1416 1415 1413 1412 1410 1409 1407 1406 1405 1403 1401 1400 1398 1397 1396 1395 1394 1394 1393 1393 1393 1393 1393 1393 1393 1393 1394 1395 1395 1396 1396 1396 1396 1395 1395 1394 1394 1393